| time (UTC) | temp F | wind direction | speed MPH | gust MPH | rain 1hr in | rain 24hr in | rain mn in | humidity % | barometer mb |
| 20260505014215 | 82 | 74 | 1.0 | 4.0 | 0.00 | 0.01 | 0.01 | 64 | 1015.9 |
| 20260505013916 | 81 | 74 | 2.0 | 4.0 | 0.00 | 0.01 | 0.01 | 64 | 1016.0 |
| 20260505013157 | 81 | 160 | 1.0 | 4.0 | 0.00 | 0.01 | 0.01 | 63 | 1016.1 |
| 20260505012855 | 81 | 160 | 1.0 | 3.0 | 0.00 | 0.01 | 0.01 | 68 | 1016.2 |
| 20260505012129 | 81 | 160 | 2.0 | 4.0 | 0.00 | 0.01 | 0.01 | 68 | 1016.5 |
| 20260505011627 | 80 | 149 | 1.0 | 4.0 | 0.00 | 0.01 | 0.01 | 69 | 1016.6 |
| 20260505011343 | 80 | 125 | 1.0 | 4.0 | 0.00 | 0.01 | 0.01 | 70 | 1016.7 |
| 20260505010622 | 80 | 125 | 2.0 | 4.0 | 0.00 | 0.01 | 0.01 | 69 | 1016.9 |
| 20260505010352 | 80 | 125 | 2.0 | 4.0 | 0.00 | 0.01 | 0.01 | 68 | 1016.9 |
| 20260505005617 | 80 | 133 | 1.0 | 4.0 | 0.00 | 0.01 | 0.01 | 69 | 1017.0 |
| 20260505005115 | 79 | 133 | 1.0 | 5.0 | 0.00 | 0.01 | 0.01 | 69 | 1017.1 |
| 20260505004842 | 79 | 206 | 2.0 | 5.0 | 0.00 | 0.01 | 0.01 | 69 | 1017.1 |
| 20260505004114 | 79 | 206 | 2.0 | 5.0 | 0.00 | 0.01 | 0.01 | 71 | 1017.1 |
| 20260505003613 | 79 | 199 | 2.0 | 5.0 | 0.00 | 0.01 | 0.01 | 72 | 1017.2 |
| 20260505003112 | 79 | 330 | 1.0 | 4.0 | 0.00 | 0.01 | 0.01 | 73 | 1017.2 |
| 20260505002613 | 79 | 190 | 1.0 | 4.0 | 0.00 | 0.01 | 0.01 | 74 | 1017.3 |
| 20260505002048 | 78 | 189 | 2.0 | 4.0 | 0.00 | 0.01 | 0.01 | 75 | 1017.3 |
| 20260505001521 | 78 | 198 | 1.0 | 4.0 | 0.00 | 0.01 | 0.01 | 76 | 1017.4 |
| 20260505000956 | 77 | 198 | 1.0 | 4.0 | 0.00 | 0.01 | 0.01 | 77 | 1017.5 |
| 20260505000430 | 77 | 228 | 2.0 | 5.0 | 0.00 | 0.01 | 0.01 | 78 | 1017.5 |
| 20260504235901 | 76 | 231 | 2.0 | 5.0 | 0.00 | 0.01 | 0.01 | 79 | 1017.5 |
| 20260504235333 | 76 | 225 | 1.0 | 3.0 | 0.00 | 0.01 | 0.01 | 80 | 1017.5 |
| 20260504234808 | 75 | 225 | 1.0 | 4.0 | 0.00 | 0.01 | 0.01 | 81 | 1017.6 |
| 20260504234240 | 75 | 228 | 2.0 | 4.0 | 0.00 | 0.01 | 0.01 | 82 | 1017.7 |
| 20260504233940 | 75 | 197 | 1.0 | 5.0 | 0.00 | 0.01 | 0.01 | 83 | 1017.7 |
| 20260504233149 | 74 | 254 | 1.0 | 5.0 | 0.00 | 0.01 | 0.01 | 84 | 1017.8 |
| 20260504232630 | 74 | 180 | 2.0 | 5.0 | 0.00 | 0.01 | 0.01 | 85 | 1017.8 |
| 20260504232131 | 74 | 238 | 2.0 | 5.0 | 0.00 | 0.01 | 0.01 | 86 | 1017.8 |
| 20260504231606 | 74 | 200 | 2.0 | 6.0 | 0.00 | 0.01 | 0.01 | 88 | 1017.8 |
| 20260504231036 | 73 | 239 | 2.0 | 6.0 | 0.00 | 0.01 | 0.01 | 88 | 1017.8 |
| 20260504230512 | 73 | 175 | 2.0 | 5.0 | 0.00 | 0.01 | 0.01 | 90 | 1017.8 |
| 20260504225948 | 72 | 219 | 1.0 | 5.0 | 0.00 | 0.01 | 0.01 | 91 | 1017.8 |
| 20260504225423 | 71 | 210 | 1.0 | 3.0 | 0.00 | 0.01 | 0.01 | 92 | 1017.8 |
| 20260504224900 | 71 | 210 | 1.0 | 5.0 | 0.00 | 0.01 | 0.01 | 93 | 1017.8 |
| 20260504224333 | 70 | 210 | 2.0 | 5.0 | 0.00 | 0.01 | 0.01 | 94 | 1017.7 |
| 20260504223820 | 69 | 180 | 2.0 | 5.0 | 0.00 | 0.01 | 0.01 | 94 | 1017.8 |
| 20260504223241 | 69 | 241 | 2.0 | 5.0 | 0.00 | 0.01 | 0.01 | 95 | 1017.7 |
| 20260504222715 | 69 | 203 | 2.0 | 4.0 | 0.00 | 0.01 | 0.01 | 95 | 1017.8 |
| 20260504222147 | 68 | 203 | 1.0 | 3.0 | 0.00 | 0.01 | 0.01 | 95 | 1017.8 |
| 20260504221619 | 68 | 203 | 1.0 | 3.0 | 0.00 | 0.01 | 0.01 | 95 | 1017.7 |
| 20260504221118 | 67 | 203 | 0.0 | 2.0 | 0.00 | 0.01 | 0.01 | 95 | 1017.7 |
| 20260504220836 | 67 | 203 | 0.0 | 2.0 | 0.00 | 0.01 | 0.01 | 95 | 1017.8 |
| 20260504220114 | 67 | 203 | 1.0 | 3.0 | 0.00 | 0.01 | 0.01 | 95 | 1017.7 |
| 20260504215611 | 66 | 203 | 1.0 | 3.0 | 0.00 | 0.01 | 0.01 | 95 | 1017.7 |
| 20260504215111 | 66 | 203 | 0.0 | 2.0 | 0.00 | 0.01 | 0.01 | 95 | 1017.7 |
| 20260504214611 | 65 | 252 | 0.0 | 2.0 | 0.00 | 0.01 | 0.01 | 95 | 1017.7 |
| 20260504214109 | 65 | 252 | 0.0 | 4.0 | 0.00 | 0.01 | 0.01 | 95 | 1017.7 |
| 20260504213609 | 65 | 252 | 0.0 | 4.0 | 0.00 | 0.01 | 0.01 | 95 | 1017.7 |
| 20260504213106 | 65 | 253 | 0.0 | 2.0 | 0.00 | 0.01 | 0.01 | 95 | 1017.7 |
| 20260504212824 | 65 | 253 | 0.0 | 2.0 | 0.00 | 0.01 | 0.01 | 95 | 1017.7 |
| 20260504212327 | 64 | 252 | 0.0 | 2.0 | 0.00 | 0.01 | 0.01 | 95 | 1017.6 |
| 20260504212040 | 64 | 253 | 1.0 | 3.0 | 0.00 | 0.01 | 0.01 | 95 | 1017.6 |
| 20260504211058 | 64 | 253 | 1.0 | 3.0 | 0.00 | 0.01 | 0.01 | 95 | 1017.5 |
| 20260504211035 | 64 | 149 | 0.0 | 0.0 | 0.00 | 0.01 | 0.01 | 95 | 1017.5 |
| 20260504210109 | 64 | 149 | 0.0 | 0.0 | 0.00 | 0.01 | 0.01 | 95 | 1017.4 |
| 20260504205553 | 64 | 149 | 0.0 | 0.0 | 0.00 | 0.01 | 0.01 | 94 | 1017.3 |
| 20260504205052 | 64 | 149 | 0.0 | 2.0 | 0.00 | 0.01 | 0.01 | 94 | 1017.3 |
| 20260504204552 | 64 | 149 | 0.0 | 2.0 | 0.00 | 0.01 | 0.01 | 94 | 1017.2 |
| 20260504204052 | 64 | 149 | 0.0 | 2.0 | 0.00 | 0.01 | 0.01 | 94 | 1017.2 |
| 20260504203553 | 64 | 149 | 0.0 | 2.0 | 0.00 | 0.01 | 0.01 | 94 | 1017.1 |
| 20260504203054 | 64 | 148 | 0.0 | 2.0 | 0.00 | 0.01 | 0.01 | 94 | 1017.2 |
| 20260504202814 | 64 | 148 | 0.0 | 2.0 | 0.00 | 0.01 | 0.01 | 94 | 1017.1 |
| 20260504202048 | 64 | 202 | 1.0 | 2.0 | 0.00 | 0.01 | 0.01 | 94 | 1017.1 |
| 20260504201550 | 64 | 202 | 0.0 | 2.0 | 0.00 | 0.01 | 0.01 | 94 | 1017.0 |
| 20260504201043 | 64 | 202 | 0.0 | 2.0 | 0.01 | 0.01 | 0.01 | 94 | 1017.0 |
| 20260504200541 | 64 | 202 | 0.0 | 2.0 | 0.01 | 0.01 | 0.01 | 94 | 1016.8 |
| 20260504200039 | 64 | 202 | 0.0 | 2.0 | 0.01 | 0.01 | 0.01 | 94 | 1016.8 |
| 20260504195541 | 64 | 202 | 0.0 | 1.0 | 0.01 | 0.01 | 0.01 | 94 | 1016.7 |
| 20260504195304 | 64 | 202 | 1.0 | 2.0 | 0.01 | 0.01 | 0.01 | 94 | 1016.6 |
| 20260504194536 | 64 | 202 | 1.0 | 2.0 | 0.01 | 0.01 | 0.01 | 94 | 1016.6 |
| 20260504194037 | 64 | 202 | 1.0 | 2.0 | 0.01 | 0.01 | 0.01 | 94 | 1016.5 |
| 20260504193536 | 64 | 202 | 0.0 | 2.0 | 0.01 | 0.01 | 0.01 | 94 | 1016.5 |
| 20260504193036 | 64 | 202 | 0.0 | 2.0 | 0.01 | 0.01 | 0.01 | 94 | 1016.3 |
| 20260504192535 | 64 | 202 | 0.0 | 3.0 | 0.01 | 0.01 | 0.01 | 94 | 1016.3 |
| 20260504192033 | 64 | 202 | 0.0 | 3.0 | 0.01 | 0.01 | 0.01 | 94 | 1016.5 |
| 20260504191545 | 64 | 202 | 1.0 | 3.0 | 0.00 | 0.00 | 0.01 | 94 | 1016.3 |
| 20260504191036 | 64 | 202 | 1.0 | 3.0 | 0.00 | 0.00 | 0.00 | 94 | 1016.2 |
| 20260504190527 | 64 | 202 | 0.0 | 2.0 | 0.00 | 0.00 | 0.00 | 94 | 1016.1 |
| 20260504190246 | 64 | 202 | 0.0 | 1.0 | 0.00 | 0.00 | 0.00 | 94 | 1016.2 |
| 20260504185523 | 64 | 202 | 0.0 | 1.0 | 0.00 | 0.00 | 0.00 | 94 | 1016.1 |
| 20260504185026 | 64 | 202 | 0.0 | 0.0 | 0.00 | 0.00 | 0.00 | 94 | 1016.1 |
| 20260504184509 | 64 | 202 | 0.0 | 0.0 | 0.00 | 0.00 | 0.00 | 94 | 1016.1 |
| 20260504184011 | 64 | 202 | 0.0 | 1.0 | 0.00 | 0.00 | 0.00 | 94 | 1016.2 |
| 20260504183446 | 64 | 202 | 0.0 | 1.0 | 0.00 | 0.00 | 0.00 | 94 | 1016.1 |
| 20260504182729 | 65 | 202 | 0.0 | 0.0 | 0.00 | 0.00 | 0.00 | 94 | 1016.1 |
| 20260504182230 | 65 | 202 | 0.0 | 0.0 | 0.00 | 0.00 | 0.00 | 94 | 1016.0 |
| 20260504181942 | 65 | 202 | 0.0 | 0.0 | 0.00 | 0.00 | 0.00 | 94 | 1016.0 |
| 20260504181223 | 65 | 202 | 0.0 | 0.0 | 0.00 | 0.00 | 0.00 | 94 | 1015.9 |
| 20260504180718 | 65 | 202 | 0.0 | 0.0 | 0.00 | 0.00 | 0.00 | 94 | 1015.9 |
| 20260504180224 | 65 | 202 | 0.0 | 0.0 | 0.00 | 0.00 | 0.00 | 94 | 1015.8 |
| 20260504175651 | 65 | 202 | 0.0 | 0.0 | 0.00 | 0.00 | 0.00 | 94 | 1015.8 |
| 20260504175137 | 65 | 202 | 0.0 | 1.0 | 0.00 | 0.00 | 0.00 | 94 | 1015.8 |
| 20260504174903 | 65 | 202 | 0.0 | 2.0 | 0.00 | 0.00 | 0.00 | 94 | 1015.9 |
| 20260504174134 | 66 | 202 | 0.0 | 2.0 | 0.00 | 0.00 | 0.00 | 94 | 1016.0 |
| 20260504173633 | 66 | 202 | 0.0 | 2.0 | 0.00 | 0.00 | 0.00 | 94 | 1016.0 |
| 20260504173133 | 66 | 202 | 0.0 | 0.0 | 0.00 | 0.00 | 0.00 | 94 | 1016.0 |
| 20260504172625 | 66 | 202 | 0.0 | 0.0 | 0.00 | 0.00 | 0.00 | 94 | 1015.9 |
| 20260504172350 | 66 | 202 | 0.0 | 0.0 | 0.00 | 0.00 | 0.00 | 94 | 1015.8 |
| 20260504171623 | 66 | 202 | 0.0 | 0.0 | 0.00 | 0.01 | 0.00 | 94 | 1015.8 |
| 20260504171121 | 66 | 202 | 0.0 | 0.0 | 0.00 | 0.01 | 0.00 | 94 | 1015.8 |
| 20260504170841 | 66 | 202 | 0.0 | 0.0 | 0.00 | 0.01 | 0.00 | 94 | 1016.0 |
| 20260504170117 | 66 | 202 | 0.0 | 0.0 | 0.00 | 0.01 | 0.00 | 94 | 1015.9 |
| 20260504160253 | 65 | 189 | 1.0 | 4.0 | 0.00 | 0.01 | 0.00 | 94 | 1016.5 |
| 20260504151006 | 64 | 89 | 0.0 | 0.0 | 0.00 | 0.01 | 0.00 | 92 | 1016.5 |
| 20260504150505 | 64 | 89 | 0.0 | 0.0 | 0.00 | 0.01 | 0.00 | 92 | 1016.6 |
| 20260504140939 | 64 | 89 | 0.0 | 0.0 | 0.00 | 0.01 | 0.00 | 91 | 1017.1 |
| 20260504140921 | 65 | 89 | 0.0 | 0.0 | 0.00 | 0.01 | 0.00 | 91 | 1017.2 |
| 20260504130620 | 66 | 89 | 0.0 | 0.0 | 0.00 | 0.01 | 0.01 | 91 | 1017.5 |
| 20260504120317 | 67 | 89 | 0.0 | 0.0 | 0.00 | 0.01 | 0.01 | 90 | 1017.8 |
| 20260504110718 | 68 | 89 | 0.0 | 0.0 | 0.00 | 0.01 | 0.01 | 89 | 1018.2 |
| 20260504110215 | 68 | 89 | 0.0 | 0.0 | 0.00 | 0.01 | 0.01 | 89 | 1018.2 |
| 20260504100128 | 70 | 89 | 0.0 | 2.0 | 0.00 | 0.01 | 0.01 | 88 | 1018.0 |
| 20260504081821 | 72 | 89 | 1.0 | 4.0 | 0.00 | 0.01 | 0.01 | 84 | 1017.0 |
| 20260504081519 | 72 | 89 | 1.0 | 4.0 | 0.00 | 0.01 | 0.01 | 84 | 1017.0 |
| 20260504080733 | 72 | 89 | 1.0 | 3.0 | 0.00 | 0.01 | 0.01 | 84 | 1016.8 |
| 20260504080208 | 73 | 89 | 1.0 | 3.0 | 0.00 | 0.01 | 0.01 | 83 | 1016.8 |
| 20260504070157 | 74 | 124 | 2.0 | 7.0 | 0.00 | 0.01 | 0.01 | 78 | 1016.2 |
| 20260504050655 | 80 | 121 | 3.0 | 8.0 | 0.00 | 0.01 | 0.01 | 68 | 1016.0 |
| 20260504050156 | 81 | 141 | 3.0 | 8.0 | 0.00 | 0.01 | 0.01 | 67 | 1015.9 |
| 20260504045655 | 81 | 122 | 2.0 | 7.0 | 0.00 | 0.01 | 0.01 | 67 | 1015.9 |
| 20260504045153 | 81 | 58 | 2.0 | 7.0 | 0.00 | 0.01 | 0.01 | 67 | 1015.9 |
| 20260504044653 | 81 | 124 | 2.0 | 9.0 | 0.00 | 0.01 | 0.01 | 66 | 1015.9 |
| 20260504044152 | 81 | 115 | 2.0 | 10.0 | 0.00 | 0.01 | 0.01 | 65 | 1015.9 |
| 20260504043645 | 81 | 122 | 2.0 | 10.0 | 0.00 | 0.01 | 0.01 | 65 | 1015.8 |
| 20260504043406 | 81 | 112 | 2.0 | 8.0 | 0.00 | 0.01 | 0.01 | 65 | 1015.8 |
| 20260504042641 | 81 | 68 | 3.0 | 8.0 | 0.00 | 0.01 | 0.01 | 65 | 1015.8 |
| 20260504042139 | 81 | 126 | 4.0 | 10.0 | 0.00 | 0.01 | 0.01 | 66 | 1015.8 |
| 20260504041639 | 81 | 124 | 4.0 | 10.0 | 0.00 | 0.01 | 0.01 | 65 | 1015.8 |
| 20260504041139 | 81 | 120 | 3.0 | 10.0 | 0.00 | 0.01 | 0.01 | 64 | 1015.9 |
| 20260504040824 | 81 | 109 | 4.0 | 10.0 | 0.00 | 0.01 | 0.01 | 64 | 1015.9 |
| 20260504040711 | 81 | 122 | 3.0 | 10.0 | 0.00 | 0.01 | 0.01 | 64 | 1015.9 |
| 20260504035553 | 81 | 122 | 5.0 | 10.0 | 0.00 | 0.01 | 0.01 | 64 | 1015.9 |
| 20260504035053 | 81 | 121 | 4.0 | 10.0 | 0.00 | 0.01 | 0.01 | 64 | 1016.0 |
| 20260504034555 | 81 | 115 | 2.0 | 8.0 | 0.00 | 0.01 | 0.01 | 65 | 1016.0 |
| 20260504034053 | 82 | 59 | 3.0 | 8.0 | 0.00 | 0.01 | 0.01 | 66 | 1016.0 |
| 20260504033553 | 81 | 81 | 3.0 | 8.0 | 0.00 | 0.01 | 0.01 | 65 | 1016.1 |
| 20260504033054 | 81 | 117 | 3.0 | 10.0 | 0.00 | 0.01 | 0.01 | 63 | 1016.1 |
| 20260504032553 | 82 | 39 | 2.0 | 10.0 | 0.00 | 0.01 | 0.01 | 63 | 1016.2 |
| 20260504032054 | 82 | 145 | 2.0 | 8.0 | 0.00 | 0.01 | 0.01 | 63 | 1016.1 |
| 20260504031553 | 82 | 104 | 3.0 | 8.0 | 0.00 | 0.01 | 0.01 | 63 | 1016.2 |
| 20260504031050 | 83 | 113 | 3.0 | 9.0 | 0.00 | 0.01 | 0.01 | 64 | 1016.3 |
| 20260504030549 | 83 | 120 | 3.0 | 9.0 | 0.00 | 0.01 | 0.01 | 64 | 1016.5 |
| 20260504030055 | 83 | 109 | 3.0 | 9.0 | 0.00 | 0.01 | 0.01 | 64 | 1016.6 |
| 20260504025540 | 82 | 169 | 2.0 | 9.0 | 0.00 | 0.01 | 0.01 | 63 | 1016.5 |
| 20260504025038 | 82 | 141 | 3.0 | 9.0 | 0.00 | 0.01 | 0.01 | 63 | 1016.6 |
| 20260504024539 | 82 | 132 | 3.0 | 10.0 | 0.00 | 0.01 | 0.01 | 63 | 1016.7 |
| 20260504024036 | 82 | 120 | 4.0 | 10.0 | 0.00 | 0.01 | 0.01 | 64 | 1016.8 |
| 20260504023759 | 82 | 114 | 4.0 | 10.0 | 0.00 | 0.01 | 0.01 | 63 | 1016.9 |
| 20260504023035 | 82 | 111 | 4.0 | 11.0 | 0.00 | 0.01 | 0.01 | 63 | 1017.0 |
| 20260504022535 | 82 | 118 | 4.0 | 11.0 | 0.00 | 0.01 | 0.01 | 64 | 1017.1 |
| 20260504022035 | 82 | 108 | 3.0 | 8.0 | 0.00 | 0.01 | 0.01 | 64 | 1017.1 |
| 20260504021535 | 81 | 118 | 3.0 | 8.0 | 0.00 | 0.01 | 0.01 | 65 | 1017.1 |
| 20260504021034 | 81 | 128 | 2.0 | 8.0 | 0.00 | 0.01 | 0.01 | 66 | 1017.2 |
| 20260504020534 | 81 | 77 | 3.0 | 9.0 | 0.00 | 0.01 | 0.01 | 66 | 1017.3 |
| 20260504020032 | 80 | 133 | 4.0 | 9.0 | 0.00 | 0.01 | 0.01 | 66 | 1017.4 |
| 20260504015747 | 80 | 114 | 4.0 | 9.0 | 0.00 | 0.01 | 0.01 | 66 | 1017.5 |
| 20260504015024 | 80 | 93 | 4.0 | 9.0 | 0.00 | 0.01 | 0.01 | 64 | 1017.5 |
| 20260504014747 | 81 | 116 | 3.0 | 9.0 | 0.00 | 0.01 | 0.01 | 64 | 1017.5 |